COSMOS 2520 (42907 NORAD) Tracking and Keplerian Element Data

This shows tracking and keplerian element data for the satellite.

Feedback or suggestion? Click here.




ElementValue
Catalog42907
NameCOSMOS 2520
Epoch Orbit456
Epoch Day315.14875704
Epoch Year2018
RAAN64.6044
Inclination0.0405
Eccentricity0.0002712
Argument of Perigee279.483
Mean Anonmoly164.7537
Mean Motion1.00274773
Decay Rate1.32E-06
L11 42907U 17046A 18315.14875704 .00000132 00000-0 00000-0 0 9990
L22 42907 0.0405 64.6044 0002712 279.4830 164.7537 1.00274773 4561

Live tracking and technical data element details for COSMOS 2520 (NORAD 42907). COSMOS 2520 can be tracked NOW for your location showing map with azimuth and elevation plus other details from your city location.

Track the satellite on the map from your city or location and see movement details for azimuth, elevation, latitude, longitude, range, height, and movement on the map or in text.







IsCatalogInMostPopularTable: catalog: 42907, numindb: 140
Update: records affected: 1



GetName: 42907 COSMOS 2520

Hit Count: updated at: Mon, 12 Nov 2018 21:56:12 GMT